[[[{"header":{"parameterUnit":"kt","parameterCategory":2,"dx":1,"dy":1,"la1":30.253999710083008,"la2":30.299108505249023,"lo1":-89.0895004272461,"lo2":-89.04439544677734,"nx":28,"ny":28,"refTime":"2022-10-22T21:00:00:Z","depth":0,"parameterNumber":1,"parameterNumberName":"U-component_of_WINDS"},"data":[-6.8726,-6.8879,-6.891,-6.9098,-6.9158,-6.9291,-6.9349,-6.9427,-6.9497,-6.966,-6.976,-6.9807,-6.9888,-7.0015,-7.0124,-7.0142,-7.0185,-7.0217,-7.0233,-7.0064,-7.0042,-7.0022,-6.9986,-7.0227,-7.0227,-7.0402,-7.0404,-7.0405,-6.8597,-6.8657,-6.8767,-6.8893,-6.8987,-6.8974,-6.9074,-6.9153,-6.9273,-6.9361,-6.9461,-6.9608,-6.9728,-6.9801,-6.9921,-6.9993,-6.9993,-7.0023,-7.0017,-7.0029,-6.9851,-6.9812,-7.0021,-7.0021,-7.0021,-7.0021,-7.0021,-7.002,-6.8371,-6.8462,-6.8556,-6.8675,-6.8747,-6.8832,-6.8924,-6.8979,-6.9086,-6.9216,-6.9232,-6.9369,-6.9463,-6.9623,-6.9685,-6.9793,-6.9765,-6.9807,-6.9817,-6.9826,-6.9831,-6.957,-6.9815,-6.9815,-6.9814,-6.9814,-6.9814,0,-6.8214,-6.8233,-6.834,-6.8456,-6.8545,-6.8638,-6.8729,-6.8787,-6.8838,-6.8925,-6.9053,-6.9132,-6.9289,-6.9412,-6.9532,-6.9588,-6.9583,-6.9587,-6.9616,-6.9607,-6.9584,-6.9595,-6.9299,-6.9579,-6.9577,-6.9576,-6.9575,-6.9574,-6.7985,-6.8089,-6.8202,-6.8273,-6.833,-6.8445,-6.8519,-6.8557,-6.8635,-6.8752,-6.8831,-6.8956,-6.9058,-6.9259,-6.9321,-6.9439,-6.9436,-6.9539,-6.9454,-6.9442,-6.9435,-6.9427,-6.9436,-6.9554,-6.9556,-6.9559,-6.956,0,-6.7852,-6.7902,-6.8072,-6.8175,-6.8204,-6.8311,-6.8398,-6.8492,-6.8535,-6.8669,-6.8703,-6.8771,-6.8896,-6.8943,-6.9097,-6.9117,-6.9292,-6.9289,-6.9259,-6.926,-6.9355,-6.9344,-6.966,-6.9702,-6.9456,-6.9458,-6.946,0,-6.7675,-6.7811,-6.7875,-6.7972,-6.8124,-6.8157,-6.8306,-6.8358,-6.8439,-6.8545,-6.8548,-6.8647,-6.8692,-6.8798,-6.8829,-6.8981,-6.9011,-6.9034,-6.904,-6.9032,-6.9029,-6.9071,-6.9058,-6.9053,-6.9051,-6.905,-6.9049,0,-6.746,-6.7655,-6.7813,-6.7865,-6.7988,-6.8061,-6.8116,-6.8207,-6.828,-6.8382,-6.843,-6.8547,-6.8611,-6.8702,-6.8739,-6.8679,-6.8927,-6.8852,-6.8951,-6.895,-6.9,-6.8996,-6.9267,-6.9046,-6.9046,-6.9045,-6.9045,0,-6.7323,-6.7426,-6.7649,-6.775,-6.7799,-6.7904,-6.8021,-6.8121,-6.8217,-6.8243,-6.8324,-6.833,-6.8469,-6.839,-6.8581,-6.8492,-6.8554,-6.859,-6.8598,-6.861,-6.852,-6.8663,-6.8919,-6.8946,-6.8625,-6.8622,-6.8619,0,-6.7063,-6.73,-6.733,-6.7541,-6.7656,-6.7649,-6.7766,-6.7851,-6.7895,-6.7999,-6.8048,-6.8167,-6.8119,-6.8162,-6.8251,-6.8305,-6.8422,-6.8292,-6.8439,-6.8444,-6.841,-6.8647,-6.8672,-6.8859,-6.8575,-6.858,-6.8583,0,-6.6866,-6.7014,-6.705,-6.7109,-6.7228,-6.7325,-6.746,-6.7585,-6.7652,-6.7749,-6.7861,-6.8032,-6.8001,-6.8074,-6.8091,-6.8181,-6.8344,-6.8136,-6.8138,-6.8169,-6.8558,-6.858,-6.8611,-6.8336,-6.8341,-6.8346,-6.8548,0,-6.6643,-6.6769,-6.6868,-6.7001,-6.7084,-6.7219,-6.7268,-6.7348,-6.7356,-6.7398,-6.7566,-6.7649,-6.7776,-6.7826,-6.7834,-6.8026,-6.8,-6.7967,-6.7891,-6.8048,-6.8115,-6.8143,-6.7786,-6.7784,-6.7783,-6.7781,0,0,-6.6379,-6.656,-6.6589,-6.672,-6.6791,-6.6781,-6.6921,-6.6989,-6.7128,-6.7177,-6.7136,-6.7386,-6.7455,-6.7654,-6.7707,-6.776,-6.7797,-6.7741,-6.7974,-6.7995,-6.8015,-6.8086,-6.8115,-6.7778,-6.7778,-6.7777,-6.7777,0,-6.6307,-6.6378,-6.6516,-6.6588,-6.6695,-6.6734,-6.6767,-6.6871,-6.6905,-6.707,-6.7059,-6.7165,-6.7366,-6.7439,-6.7502,-6.7719,-6.7703,-6.7755,-6.7854,-6.7956,-6.7979,-6.8,-6.8075,-6.8101,-6.7773,-6.7773,-6.7773,0,-6.612,-6.6196,-6.6268,-6.6431,-6.6501,-6.6621,-6.6554,-6.6684,-6.6773,-6.6754,-6.6918,-6.6971,-6.7074,-6.7256,-6.734,-6.7304,-6.7614,-6.7526,-6.7538,-6.7547,-6.7648,-6.7676,-6.7701,-6.7371,-6.7369,-6.7368,0,0,-6.605,-6.6167,-6.626,-6.6419,-6.6463,-6.6522,-6.6591,-6.6605,-6.6698,-6.6735,-6.6801,-6.6891,-6.7008,-6.7083,-6.7195,-6.739,-6.7412,-6.7474,-6.7493,-6.7509,-6.7526,-6.7631,-6.7659,-6.7361,-6.7361,-6.7361,0,0,-6.6017,-6.613,-6.6121,-6.6311,-6.6399,-6.6501,-6.6595,-6.6587,-6.6692,-6.6681,-6.6711,-6.6737,-6.6908,-6.696,-6.6873,-6.7169,-6.7094,-6.7115,-6.7128,-6.7152,-6.7171,-6.7154,-6.6815,0,0,0,0,0,-6.5966,-6.6116,-6.6107,-6.6146,-6.635,-6.6506,-6.6533,-6.656,-6.6506,-6.658,-6.6634,-6.6613,-6.6919,-6.6843,-6.6881,-6.6977,-6.7283,-6.7297,-6.731,-6.7372,-6.7398,-6.7419,0,0,0,0,0,0,-6.5982,-6.6029,-6.6103,-6.621,-6.6257,-6.6501,-6.6415,-6.6427,-6.6499,-6.6492,-6.6603,-6.6617,-6.6643,-6.6825,-6.6859,-6.6949,-6.6803,-6.7289,-6.73,-6.7311,-6.7381,-6.7402,-6.7419,0,0,0,0,0,-6.5994,-6.6032,-6.6354,-6.6208,-6.6249,-6.6322,-6.6409,-6.6419,-6.6475,-6.6558,-6.6571,-6.6489,-6.6645,-6.6676,-6.6846,-6.6933,-6.678,-6.6793,-6.7296,-6.7306,-6.7314,-6.7391,0,0,0,0,0,0,-6.6003,-6.6042,-6.6362,-6.6376,-6.6153,-6.6308,-6.6334,-6.6411,-6.6537,-6.6551,-6.6445,-6.6438,-6.6648,-6.6671,-6.6695,-6.6926,-6.6761,-6.6774,-6.6782,-6.7303,-6.7311,-6.7317,0,0,0,0,0,0,-6.6021,-6.6053,-6.6369,-6.6298,-6.6304,-6.6296,-6.6319,-6.6467,-6.6538,-6.6416,-6.6414,-6.644,-6.6613,-6.6669,-6.6687,-6.6919,-6.6746,-6.6759,-6.6767,-6.6773,-6.7309,-6.7315,0,0,0,0,0,0,-6.6035,-6.6063,-6.6295,-6.6299,-6.6303,-6.6455,-6.6428,-6.6636,-6.6477,-6.6411,-6.6464,-6.6458,-6.6612,-6.663,-6.6682,-6.6906,-6.6915,-6.6747,-6.6755,-6.6761,-6.6765,0,0,0,0,0,0,0,-6.6047,-6.5857,-6.6283,-6.63,-6.6303,-6.6498,-6.6502,-6.6506,-6.6476,-6.6471,-6.6465,-6.646,-6.6677,-6.669,-6.6704,-6.6896,0,0,-6.6746,-6.6752,0,0,0,0,0,0,0,0,-6.5846,-6.5855,-6.6284,-6.6287,-6.6289,-6.6499,-6.6502,-6.6505,-6.6475,-6.6471,-6.6466,-6.6462,-6.668,-6.6691,-6.6702,0,0,0,0,0,0,0,0,0,0,0,0,0,0,0,-6.6284,-6.6286,0,-6.6499,-6.6502,-6.6504,-6.6475,-6.6471,-6.6467,-6.6464,-6.6683,-6.6692,-6.6701,0,0,0,0,0,0,0,0,0,0,0,0,0,0,0,0,0,0,0,0,0,0,0,0,0,0,0,0,0,0,0,0,0,0,0,0,0,0,0,0,0,0,0,0,0,0,0,0,0,0,0,0,0,0,0,0,0,0,0,0,0,0,0,0,0,0,0,0,0]}],[{"header":{"parameterUnit":"kt","parameterCategory":2,"dx":1,"dy":1,"la1":30.253999710083008,"la2":30.299108505249023,"lo1":-89.0895004272461,"lo2":-89.04439544677734,"nx":28,"ny":28,"refTime":"2022-10-22T21:00:00:Z","depth":0,"parameterNumber":2,"parameterNumberName":"V-component_of_WINDS"},"data":[8.749,8.7561,8.7538,8.7608,8.7599,8.7642,8.7651,8.7659,8.766,8.771,8.7734,8.7719,8.7711,8.7735,8.776,8.7753,8.7763,8.7805,8.7788,8.7624,8.76,8.7576,8.7556,8.7809,8.7809,8.7958,8.796,8.7961,8.737,8.7362,8.7394,8.7407,8.7433,8.738,8.7387,8.7412,8.7452,8.7455,8.7478,8.752,8.7551,8.7528,8.7554,8.7586,8.756,8.7594,8.7588,8.7587,8.7412,8.7391,8.7613,8.7613,8.7613,8.7613,8.7613,8.7613,8.7145,8.7189,8.7183,8.7216,8.7218,8.7228,8.7265,8.7245,8.7275,8.7298,8.7266,8.7312,8.731,8.7329,8.733,8.7365,8.7324,8.7352,8.7358,8.7365,8.7374,8.7155,8.7369,8.7369,8.7368,8.7367,8.7367,0,8.6971,8.6948,8.6977,8.6998,8.7021,8.7036,8.7046,8.7069,8.7013,8.7041,8.7078,8.7096,8.7132,8.7164,8.7183,8.7177,8.7121,8.7115,8.7134,8.7146,8.7155,8.7146,8.6858,8.7108,8.7105,8.7104,8.7102,8.7101,8.6737,8.6793,8.6777,8.68,8.6799,8.6838,8.6856,8.6802,8.6824,8.6828,8.687,8.6902,8.6924,8.699,8.6964,8.6991,8.6963,8.706,8.6966,8.6977,8.6958,8.6953,8.6957,8.7077,8.708,8.7083,8.7085,0,8.6607,8.6568,8.6647,8.6625,8.6621,8.6683,8.6663,8.6706,8.6681,8.6736,8.6745,8.6706,8.6744,8.6703,8.6739,8.6716,8.6813,8.6788,8.6812,8.6803,8.6882,8.6873,8.7155,8.7187,8.693,8.6932,8.6934,0,8.639,8.6466,8.6403,8.6451,8.6533,8.6476,8.6558,8.6544,8.6541,8.6584,8.6515,8.6556,8.6497,8.6532,8.6499,8.6571,8.658,8.6564,8.6553,8.6567,8.6569,8.6573,8.6559,8.6533,8.6531,8.653,8.6529,0,8.6186,8.6243,8.6321,8.6327,8.6311,8.6349,8.6344,8.634,8.6358,8.6376,8.6387,8.6413,8.6426,8.6447,8.6402,8.6339,8.6492,8.6396,8.6475,8.6476,8.6506,8.6504,8.6769,8.6527,8.6527,8.6526,8.6526,0,8.6002,8.6021,8.6142,8.6125,8.6142,8.6195,8.6214,8.625,8.625,8.6231,8.6245,8.6192,8.6255,8.6163,8.6248,8.6178,8.6195,8.6187,8.6192,8.619,8.6086,8.6235,8.6496,8.6518,8.6195,8.6193,8.619,0,8.5777,8.5889,8.5839,8.5956,8.6001,8.5916,8.5974,8.5977,8.5956,8.5991,8.5968,8.6009,8.5932,8.5937,8.5986,8.5963,8.6054,8.5951,8.5997,8.6,8.5994,8.6235,8.6281,8.6444,8.6155,8.6158,8.6161,0,8.5596,8.5575,8.56,8.5602,8.5597,8.5635,8.5703,8.5729,8.5754,8.5767,8.5819,8.5878,8.582,8.5832,8.5792,8.5844,8.5991,8.5775,8.5774,8.5811,8.6135,8.6178,8.6205,8.5952,8.5957,8.596,8.6133,0,8.5319,8.537,8.5436,8.5448,8.5471,8.5543,8.5495,8.5526,8.5483,8.5458,8.5538,8.5529,8.5557,8.5579,8.5539,8.5674,8.5643,8.5582,8.5484,8.5645,8.57,8.5723,8.5405,8.5402,8.54,8.5398,0,0,8.511,8.5182,8.5125,8.5187,8.5202,8.5112,8.5193,8.5198,8.5209,8.5221,8.5168,8.5248,8.5244,8.5344,8.5391,8.5404,8.5422,8.5368,8.557,8.5589,8.5607,8.5667,8.5692,8.5393,8.5392,8.5391,8.539,0,8.4996,8.4995,8.5076,8.5078,8.5078,8.5048,8.5068,8.5052,8.504,8.5118,8.5041,8.5084,8.5151,8.5154,8.5164,8.5357,8.5294,8.537,8.5486,8.5545,8.5568,8.5588,8.5652,8.5677,8.5384,8.5384,8.5385,0,8.4806,8.4794,8.4829,8.4861,8.486,8.491,8.4796,8.4855,8.489,8.4788,8.4866,8.4855,8.4857,8.496,8.5005,8.4956,8.518,8.5103,8.5118,8.512,8.5175,8.5202,8.5227,8.4901,8.49,8.4898,0,0,8.4714,8.4762,8.4732,8.4833,8.4838,8.4794,8.4816,8.4774,8.4777,8.4779,8.4762,8.4768,8.4805,8.4831,8.4865,8.4986,8.4979,8.5045,8.5068,8.5087,8.5099,8.5159,8.5186,8.4893,8.4892,8.4892,0,0,8.467,8.4638,8.4594,8.4704,8.471,8.4686,8.4749,8.4694,8.4719,8.4704,8.4637,8.4636,8.4732,8.4724,8.4654,8.4828,8.4733,8.4749,8.4829,8.4857,8.4879,8.4876,8.4534,0,0,0,0,0,8.4528,8.4641,8.4602,8.4613,8.4653,8.4709,8.4713,8.466,8.4593,8.4644,8.4621,8.4553,8.4671,8.4608,8.462,8.4697,8.4819,8.4832,8.4845,8.4975,8.5005,8.5031,0,0,0,0,0,0,8.4532,8.4546,8.4599,8.458,8.4589,8.4704,8.4578,8.4567,8.4586,8.4572,8.456,8.4553,8.4509,8.4598,8.461,8.4684,8.453,8.4825,8.4836,8.4845,8.4986,8.501,8.5031,0,0,0,0,0,8.4535,8.4546,8.4624,8.4578,8.4586,8.4542,8.4573,8.4563,8.4576,8.4541,8.4532,8.4534,8.4512,8.4519,8.4605,8.468,8.4521,8.4526,8.4832,8.484,8.4848,8.4998,0,0,0,0,0,0,8.4537,8.4537,8.4624,8.4625,8.4531,8.4534,8.4533,8.456,8.4543,8.4535,8.4511,8.45,8.4516,8.452,8.4526,8.4682,8.4514,8.4519,8.4522,8.4838,8.4845,8.4851,0,0,0,0,0,0,8.453,8.4538,8.4624,8.4568,8.4561,8.4527,8.4526,8.4592,8.4544,8.4514,8.4504,8.4507,8.4508,8.4523,8.4526,8.4631,8.4509,8.4513,8.4516,8.4518,8.4844,8.4849,0,0,0,0,0,0,8.4533,8.4539,8.4567,8.4562,8.4556,8.4554,8.4584,8.4628,8.4496,8.4516,8.4483,8.4476,8.4513,8.4515,8.4527,8.4631,8.4631,8.4509,8.4512,8.4514,8.4516,0,0,0,0,0,0,0,8.4534,8.4505,8.4623,8.4558,8.4552,8.4626,8.4626,8.4627,8.4495,8.4489,8.4484,8.4479,8.4483,8.4488,8.4493,8.4631,0,0,8.4508,8.4511,0,0,0,0,0,0,0,0,8.4501,8.4504,8.4623,8.4623,8.4624,8.4626,8.4626,8.4626,8.4494,8.4489,8.4485,8.4481,8.4484,8.4488,8.4492,0,0,0,0,0,0,0,0,0,0,0,0,0,0,0,8.4623,8.4623,0,8.4626,8.4626,8.4626,8.4493,8.4489,8.4486,8.4483,8.4485,8.4489,8.4492,0,0,0,0,0,0,0,0,0,0,0,0,0,0,0,0,0,0,0,0,0,0,0,0,0,0,0,0,0,0,0,0,0,0,0,0,0,0,0,0,0,0,0,0,0,0,0,0,0,0,0,0,0,0,0,0,0,0,0,0,0,0,0,0,0,0,0,0,0]}]]]